{"data":{"norad_id":69962,"intl_designator":"2026-157V","name":"STARLINK-37925","alt_names":[],"object_type":"PAYLOAD","status":"ACTIVE","operator":null,"country":"US","launch_date":"2026-07-09","launch_site_code":"AFETR","launch_vehicle":null,"mission":null,"orbit_class":"UNKNOWN","rcs_meters":null,"size_class":null,"mass_kg":null,"dimensions":null,"purposes":["comms"],"wikipedia_slug":null,"has_3d_model":false,"image_url":null,"decayed_at":null,"tle_current":{"epoch":"2026-09-20T04:33:14.851872Z","epoch_age_seconds":47219,"freshness":"FRESH","line1":"1 69962U 26157V   26263.18975523  .00020734  00000+0  62264-3 0  9990","line2":"2 69962  53.1553 335.2783 0002500  80.2662 279.8623 15.34421526 11325","mean_motion":15.34421526,"eccentricity":0.00025,"inclination_deg":53.1553,"raan_deg":335.2783,"arg_perigee_deg":80.2662,"mean_anomaly_deg":279.8623,"bstar":0.00062264,"rev_number":1132,"period_min":93.846441515576,"perigee_km":460.92906708139,"apogee_km":464.34945521196,"semimajor_km":6840.7762611467,"source":"CELESTRAK","updated_at":"2026-09-20T09:00:44.302863Z"}}}